Location: Sternwarte ZA, Rosenfeld-Brittheim
(48.2889°N, 8.6789°E)
Time: 08:42:42
(UTC+02:00)

ISS - Pass Details

Date: 17 May 2021
Orbit: 417 x 422 km, 51.6° (Epoch: 18 June)

Event Time Altitude Azimuth Distance (km) Brightness Sun altitude
Rises 02:03:28 0° 289° (WNW) 2,372 0.2 -21.7°
Reaches altitude 10° 02:05:36 10° 293° (WNW) 1,507 -0.8 -21.7°
Maximum altitude 02:08:57 62° 15° (NNE) 480 -3.3 -21.6°
Drops below altitude 10° 02:12:19 10° 97° (E) 1,506 -0.9 -21.4°
Sets 02:14:26 0° 101° (E) 2,370 0.1 -21.4°
